Time,TemperatureF,DewpointF,PressureIn,WindDirection,WindDirectionDegrees,WindSpeedMPH,WindSpeedGustMPH,Humidity,HourlyPrecipIn,Conditions,Clouds,dailyrainin,SoftwareType,DateUTC
2013-01-29 00:03:00,52.3,50.3,30.18,SE,137,4.0,6.0,93,0.00,,SKC,0.00,VWS V13.00,2013-01-29 06:03:00,
2013-01-29 00:08:00,52.2,50.2,30.18,ESE,115,1.0,7.0,93,0.00,,SKC,0.00,VWS V13.00,2013-01-29 06:08:00,
2013-01-29 00:13:00,52.2,50.5,30.18,SE,146,1.0,7.0,94,0.00,,SKC,0.00,VWS V13.00,2013-01-29 06:13:00,
2013-01-29 00:18:00,52.1,50.1,30.18,SE,126,4.0,7.0,93,0.00,,SKC,0.00,VWS V13.00,2013-01-29 06:18:00,
2013-01-29 00:23:00,52.1,50.1,30.18,ESE,103,2.0,7.0,93,0.00,,SKC,0.00,VWS V13.00,2013-01-29 06:23:00,
2013-01-29 00:28:00,52.1,50.4,30.18,ESE,109,4.0,7.0,94,0.00,,SKC,0.00,VWS V13.00,2013-01-29 06:28:00,
2013-01-29 00:33:00,52.1,50.4,30.18,SE,132,4.0,4.0,94,0.00,,SKC,0.00,VWS V13.00,2013-01-29 06:33:00,
2013-01-29 00:38:00,52.1,50.4,30.18,East,82,5.0,5.0,94,0.00,,SKC,0.00,VWS V13.00,2013-01-29 06:38:00,
2013-01-29 00:43:00,52.0,50.0,30.18,SE,138,7.0,7.0,93,0.00,,SKC,0.00,VWS V13.00,2013-01-29 06:43:00,
2013-01-29 00:48:00,51.9,49.9,30.17,SE,145,0.0,7.0,93,0.00,,SKC,0.00,VWS V13.00,2013-01-29 06:48:00,
2013-01-29 00:53:00,51.7,50.0,30.17,East,92,5.0,7.0,94,0.00,,SKC,0.00,VWS V13.00,2013-01-29 06:53:00,
2013-01-29 00:58:00,51.6,49.7,30.17,SE,126,3.0,7.0,93,0.00,,SKC,0.00,VWS V13.00,2013-01-29 06:58:00,
2013-01-29 01:03:00,51.5,49.8,30.17,ESE,110,4.0,5.0,94,0.00,,SKC,0.00,VWS V13.00,2013-01-29 07:03:00,
2013-01-29 01:08:00,51.4,49.7,30.17,East,97,1.0,5.0,94,0.00,,SKC,0.00,VWS V13.00,2013-01-29 07:08:00,
2013-01-29 01:13:00,51.3,49.3,30.17,SE,134,0.0,5.0,93,0.00,,SKC,0.00,VWS V13.00,2013-01-29 07:13:00,
2013-01-29 01:18:00,51.3,49.6,30.17,SE,134,5.0,7.0,94,0.00,,SKC,0.00,VWS V13.00,2013-01-29 07:18:00,
2013-01-29 01:23:00,51.2,49.5,30.17,SE,140,1.0,8.0,94,0.00,,SKC,0.00,VWS V13.00,2013-01-29 07:23:00,
2013-01-29 01:28:00,51.2,49.5,30.17,ESE,123,5.0,8.0,94,0.00,,SKC,0.00,VWS V13.00,2013-01-29 07:28:00,
2013-01-29 01:33:00,51.2,49.5,30.17,SE,128,6.0,7.0,94,0.00,,SKC,0.00,VWS V13.00,2013-01-29 07:33:00,
2013-01-29 01:38:00,51.2,49.5,30.17,South,169,1.0,7.0,94,0.00,,SKC,0.00,VWS V13.00,2013-01-29 07:38:00,
2013-01-29 01:43:00,51.2,49.5,30.17,SE,142,5.0,7.0,94,0.00,,SKC,0.00,VWS V13.00,2013-01-29 07:43:00,
2013-01-29 01:48:00,51.1,49.4,30.16,SE,142,5.0,7.0,94,0.00,,SKC,0.00,VWS V13.00,2013-01-29 07:48:00,
2013-01-29 01:53:00,51.1,49.4,30.16,SSE,162,1.0,7.0,94,0.00,,SKC,0.00,VWS V13.00,2013-01-29 07:53:00,
2013-01-29 01:58:00,51.0,49.3,30.16,South,169,1.0,7.0,94,0.00,,SKC,0.00,VWS V13.00,2013-01-29 07:58:00,
2013-01-29 02:03:00,51.0,49.3,30.16,SSE,165,3.0,3.0,94,0.00,,SKC,0.00,VWS V13.00,2013-01-29 08:03:00,
2013-01-29 02:08:00,50.9,49.2,30.16,SSE,165,4.0,6.0,94,0.00,,SKC,0.00,VWS V13.00,2013-01-29 08:08:00,
2013-01-29 02:13:00,50.9,49.2,30.16,SSE,167,4.0,6.0,94,0.00,,SKC,0.00,VWS V13.00,2013-01-29 08:13:00,
2013-01-29 02:18:00,50.9,49.2,30.15,SE,146,5.0,8.0,94,0.00,,SKC,0.00,VWS V13.00,2013-01-29 08:18:00,
2013-01-29 02:23:00,50.9,49.2,30.15,SSE,165,5.0,8.0,94,0.00,,SKC,0.00,VWS V13.00,2013-01-29 08:23:00,
2013-01-29 02:28:00,50.8,49.1,30.15,SSW,202,5.0,8.0,94,0.00,,SKC,0.00,VWS V13.00,2013-01-29 08:28:00,
2013-01-29 02:33:00,50.7,49.0,30.15,South,173,1.0,7.0,94,0.00,,SKC,0.00,VWS V13.00,2013-01-29 08:33:00,
2013-01-29 02:38:00,50.6,48.9,30.15,SSE,167,1.0,7.0,94,0.00,,SKC,0.00,VWS V13.00,2013-01-29 08:38:00,
2013-01-29 02:43:00,50.6,48.9,30.15,South,182,5.0,7.0,94,0.00,,SKC,0.00,VWS V13.00,2013-01-29 08:43:00,
2013-01-29 02:48:00,50.7,49.3,30.15,SSE,148,2.0,7.0,95,0.00,,SKC,0.00,VWS V13.00,2013-01-29 08:48:00,
2013-01-29 02:53:00,50.9,49.5,30.15,SSW,192,4.0,7.0,95,0.00,,SKC,0.00,VWS V13.00,2013-01-29 08:53:00,
2013-01-29 02:58:00,51.1,49.7,30.15,South,186,6.0,8.0,95,0.00,,SKC,0.00,VWS V13.00,2013-01-29 08:58:00,
2013-01-29 03:03:00,51.4,50.0,30.15,SE,142,3.0,6.0,95,0.00,,SKC,0.00,VWS V13.00,2013-01-29 09:03:00,
2013-01-29 03:08:00,51.6,49.9,30.14,SSE,157,4.0,6.0,94,0.00,,SKC,0.00,VWS V13.00,2013-01-29 09:08:00,
2013-01-29 03:13:00,51.7,50.0,30.14,SE,131,1.0,6.0,94,0.00,,SKC,0.00,VWS V13.00,2013-01-29 09:13:00,
2013-01-29 03:18:00,51.8,50.1,30.14,SSE,155,4.0,7.0,94,0.00,,SKC,0.00,VWS V13.00,2013-01-29 09:18:00,
2013-01-29 03:23:00,51.8,50.1,30.14,SSE,157,1.0,7.0,94,0.00,,SKC,0.00,VWS V13.00,2013-01-29 09:23:00,
2013-01-29 03:28:00,51.7,50.0,30.14,SE,132,0.0,7.0,94,0.00,,SKC,0.00,VWS V13.00,2013-01-29 09:28:00,
2013-01-29 03:33:00,51.5,49.8,30.14,ESE,111,1.0,4.0,94,0.00,,SKC,0.00,VWS V13.00,2013-01-29 09:33:00,
2013-01-29 03:38:00,51.3,49.6,30.14,ESE,110,0.0,4.0,94,0.00,,SKC,0.00,VWS V13.00,2013-01-29 09:38:00,
2013-01-29 03:43:00,51.2,49.5,30.14,ESE,110,0.0,4.0,94,0.00,,SKC,0.00,VWS V13.00,2013-01-29 09:43:00,
2013-01-29 03:48:00,51.1,49.7,30.14,SE,140,1.0,5.0,95,0.00,,SKC,0.00,VWS V13.00,2013-01-29 09:48:00,
2013-01-29 03:53:00,51.0,49.6,30.13,SSE,155,1.0,5.0,95,0.00,,SKC,0.00,VWS V13.00,2013-01-29 09:53:00,
2013-01-29 03:58:00,51.0,49.6,30.13,SE,142,4.0,5.0,95,0.00,,SKC,0.00,VWS V13.00,2013-01-29 09:58:00,
2013-01-29 04:03:00,51.0,49.6,30.13,SSE,159,2.0,4.0,95,0.00,,SKC,0.00,VWS V13.00,2013-01-29 10:03:00,
2013-01-29 04:08:00,51.0,49.6,30.13,South,174,1.0,4.0,95,0.00,,SKC,0.00,VWS V13.00,2013-01-29 10:08:00,
2013-01-29 04:13:00,51.1,49.7,30.13,SSE,151,0.0,4.0,95,0.00,,SKC,0.00,VWS V13.00,2013-01-29 10:13:00,
2013-01-29 04:18:00,51.0,49.6,30.13,SE,134,0.0,5.0,95,0.00,,SKC,0.00,VWS V13.00,2013-01-29 10:18:00,
2013-01-29 04:23:00,50.9,49.5,30.13,SE,126,0.0,5.0,95,0.00,,SKC,0.00,VWS V13.00,2013-01-29 10:23:00,
2013-01-29 04:28:00,50.8,49.4,30.13,SSE,151,2.0,5.0,95,0.00,,SKC,0.00,VWS V13.00,2013-01-29 10:28:00,
2013-01-29 04:33:00,50.8,49.4,30.13,ESE,110,2.0,2.0,95,0.00,,SKC,0.00,VWS V13.00,2013-01-29 10:33:00,
2013-01-29 04:38:00,50.7,49.3,30.12,SE,143,0.0,4.0,95,0.00,,SKC,0.00,VWS V13.00,2013-01-29 10:38:00,
2013-01-29 04:43:00,50.7,49.6,30.13,ESE,118,0.0,4.0,96,0.00,,SKC,0.00,VWS V13.00,2013-01-29 10:43:00,
2013-01-29 04:48:00,50.6,49.2,30.12,SSE,159,0.0,4.0,95,0.00,,SKC,0.00,VWS V13.00,2013-01-29 10:48:00,
2013-01-29 04:53:00,50.5,49.4,30.12,SSE,162,1.0,4.0,96,0.00,,SKC,0.00,VWS V13.00,2013-01-29 10:53:00,
2013-01-29 04:58:00,50.6,49.5,30.12,SSE,165,1.0,4.0,96,0.00,,SKC,0.00,VWS V13.00,2013-01-29 10:58:00,
2013-01-29 05:03:00,50.7,49.6,30.13,South,169,1.0,5.0,96,0.00,,SKC,0.00,VWS V13.00,2013-01-29 11:03:00,
2013-01-29 05:08:00,50.8,49.7,30.13,South,176,1.0,5.0,96,0.00,,SKC,0.00,VWS V13.00,2013-01-29 11:08:00,
2013-01-29 05:13:00,51.0,50.2,30.12,South,182,1.0,5.0,97,0.00,,SKC,0.00,VWS V13.00,2013-01-29 11:13:00,
2013-01-29 05:18:00,51.2,50.4,30.12,South,186,2.0,5.0,97,0.00,,SKC,0.00,VWS V13.00,2013-01-29 11:18:00,
2013-01-29 05:23:00,51.5,50.7,30.12,SSE,167,5.0,6.0,97,0.00,,SKC,0.00,VWS V13.00,2013-01-29 11:23:00,
2013-01-29 05:28:00,51.8,51.0,30.12,South,171,1.0,7.0,97,0.00,,SKC,0.00,VWS V13.00,2013-01-29 11:28:00,
2013-01-29 05:33:00,52.0,51.2,30.12,South,183,1.0,5.0,97,0.00,,SKC,0.00,VWS V13.00,2013-01-29 11:33:00,
2013-01-29 05:38:00,52.1,51.0,30.11,SSE,155,2.0,8.0,96,0.00,,SKC,0.00,VWS V13.00,2013-01-29 11:38:00,
2013-01-29 05:43:00,52.2,51.1,30.11,SSE,159,2.0,8.0,96,0.00,,SKC,0.00,VWS V13.00,2013-01-29 11:43:00,
2013-01-29 05:48:00,52.3,51.2,30.11,South,188,5.0,8.0,96,0.00,,SKC,0.00,VWS V13.00,2013-01-29 11:48:00,
2013-01-29 05:53:00,52.6,51.8,30.11,SSE,159,6.0,8.0,97,0.00,,SKC,0.00,VWS V13.00,2013-01-29 11:53:00,
2013-01-29 05:58:00,52.8,51.7,30.10,South,169,5.0,10.0,96,0.00,,SKC,0.00,VWS V13.00,2013-01-29 11:58:00,
2013-01-29 06:03:00,53.0,51.9,30.11,SSE,166,2.0,8.0,96,0.00,,SKC,0.00,VWS V13.00,2013-01-29 12:03:00,
2013-01-29 06:08:00,53.2,52.4,30.11,South,178,5.0,12.0,97,0.00,,SKC,0.00,VWS V13.00,2013-01-29 12:08:00,
2013-01-29 06:13:00,53.3,52.2,30.11,South,183,1.0,12.0,96,0.00,,SKC,0.00,VWS V13.00,2013-01-29 12:13:00,
2013-01-29 06:18:00,53.5,52.4,30.11,South,180,4.0,12.0,96,0.00,,SKC,0.00,VWS V13.00,2013-01-29 12:18:00,
2013-01-29 06:22:00,53.5,52.4,30.11,South,172,8.0,12.0,96,0.00,,SKC,0.00,VWS V13.00,2013-01-29 12:22:00,
2013-01-29 06:27:00,53.5,52.4,30.11,South,178,4.0,12.0,96,0.00,,SKC,0.00,VWS V13.00,2013-01-29 12:27:00,
2013-01-29 06:32:00,53.6,52.5,30.10,South,177,4.0,7.0,96,0.00,,SKC,0.00,VWS V13.00,2013-01-29 12:32:00,
2013-01-29 06:37:00,53.8,52.7,30.10,South,184,4.0,11.0,96,0.00,,SKC,0.00,VWS V13.00,2013-01-29 12:37:00,
2013-01-29 06:42:00,54.0,52.9,30.10,SSW,196,4.0,11.0,96,0.00,,SKC,0.00,VWS V13.00,2013-01-29 12:42:00,
2013-01-29 06:47:00,54.2,53.1,30.10,South,177,5.0,11.0,96,0.00,,SKC,0.00,VWS V13.00,2013-01-29 12:47:00,
2013-01-29 06:52:00,54.4,53.3,30.10,South,185,9.0,11.0,96,0.00,,SKC,0.00,VWS V13.00,2013-01-29 12:52:00,
2013-01-29 06:57:00,54.6,53.5,30.11,South,184,9.0,12.0,96,0.00,,SKC,0.00,VWS V13.00,2013-01-29 12:57:00,
2013-01-29 07:02:00,54.7,53.6,30.11,South,185,3.0,4.0,96,0.00,,SKC,0.00,VWS V13.00,2013-01-29 13:02:00,
2013-01-29 07:07:00,54.9,53.8,30.11,South,190,5.0,11.0,96,0.00,,SKC,0.00,VWS V13.00,2013-01-29 13:07:00,
2013-01-29 07:12:00,54.9,53.8,30.11,South,182,10.0,11.0,96,0.00,,SKC,0.00,VWS V13.00,2013-01-29 13:12:00,
2013-01-29 07:17:00,55.0,54.2,30.11,SSE,162,4.0,11.0,97,0.00,,SKC,0.00,VWS V13.00,2013-01-29 13:17:00,
2013-01-29 07:22:00,55.0,54.2,30.12,SSW,197,5.0,11.0,97,0.00,,SKC,0.00,VWS V13.00,2013-01-29 13:22:00,
2013-01-29 07:27:00,55.0,54.2,30.12,South,174,4.0,11.0,97,0.00,,SKC,0.00,VWS V13.00,2013-01-29 13:27:00,
2013-01-29 07:32:00,55.2,54.4,30.12,South,190,4.0,4.0,97,0.00,,SKC,0.00,VWS V13.00,2013-01-29 13:32:00,
2013-01-29 07:37:00,55.2,54.4,30.12,SSE,164,1.0,5.0,97,0.00,,SKC,0.00,VWS V13.00,2013-01-29 13:37:00,
2013-01-29 07:42:00,55.3,54.5,30.12,South,184,2.0,6.0,97,0.00,,SKC,0.00,VWS V13.00,2013-01-29 13:42:00,
2013-01-29 07:47:00,55.5,55.0,30.12,South,174,4.0,7.0,98,0.00,,SKC,0.00,VWS V13.00,2013-01-29 13:47:00,
2013-01-29 07:52:00,55.5,54.7,30.12,SSE,153,0.0,7.0,97,0.00,,SKC,0.00,VWS V13.00,2013-01-29 13:52:00,
2013-01-29 07:57:00,55.7,54.9,30.12,SE,146,6.0,8.0,97,0.00,,SKC,0.00,VWS V13.00,2013-01-29 13:57:00,
2013-01-29 08:02:00,55.8,55.0,30.12,South,171,4.0,4.0,97,0.00,,SKC,0.00,VWS V13.00,2013-01-29 14:02:00,
2013-01-29 08:07:00,55.8,55.0,30.12,SE,135,5.0,6.0,97,0.00,,SKC,0.00,VWS V13.00,2013-01-29 14:07:00,
2013-01-29 08:12:00,55.9,55.3,30.12,South,179,6.0,8.0,98,0.00,,SKC,0.00,VWS V13.00,2013-01-29 14:12:00,
2013-01-29 08:17:00,55.9,55.3,30.12,SSE,161,5.0,9.0,98,0.00,,SKC,0.00,VWS V13.00,2013-01-29 14:17:00,
2013-01-29 08:22:00,55.8,55.0,30.12,South,175,2.0,9.0,97,0.00,,SKC,0.00,VWS V13.00,2013-01-29 14:22:00,
2013-01-29 08:27:00,55.7,54.9,30.12,South,178,4.0,9.0,97,0.00,,SKC,0.00,VWS V13.00,2013-01-29 14:27:00,
2013-01-29 08:32:00,55.6,54.8,30.12,South,182,5.0,5.0,97,0.00,,SKC,0.00,VWS V13.00,2013-01-29 14:32:00,
2013-01-29 08:37:00,55.7,54.9,30.12,SSE,159,4.0,6.0,97,0.00,,SKC,0.00,VWS V13.00,2013-01-29 14:37:00,
2013-01-29 08:42:00,55.6,55.0,30.12,SSW,194,1.0,6.0,98,0.00,,SKC,0.00,VWS V13.00,2013-01-29 14:42:00,
2013-01-29 08:47:00,55.7,55.2,30.12,South,174,2.0,7.0,98,0.00,,SKC,0.00,VWS V13.00,2013-01-29 14:47:00,
2013-01-29 08:52:00,55.9,55.3,30.12,SSE,147,1.0,7.0,98,0.00,,SKC,0.00,VWS V13.00,2013-01-29 14:52:00,
2013-01-29 08:57:00,56.1,55.5,30.12,South,174,8.0,9.0,98,0.00,,SKC,0.00,VWS V13.00,2013-01-29 14:57:00,
2013-01-29 09:02:00,56.1,55.5,30.12,SSW,198,5.0,5.0,98,0.00,,SKC,0.00,VWS V13.00,2013-01-29 15:02:00,
2013-01-29 09:07:00,56.2,55.7,30.12,SE,146,2.0,7.0,98,0.00,,SKC,0.00,VWS V13.00,2013-01-29 15:07:00,
2013-01-29 09:12:00,56.2,55.7,30.12,SSE,161,1.0,7.0,98,0.00,,SKC,0.00,VWS V13.00,2013-01-29 15:12:00,
2013-01-29 09:17:00,56.2,55.7,30.11,South,170,4.0,9.0,98,0.00,,SKC,0.00,VWS V13.00,2013-01-29 15:17:00,
2013-01-29 09:22:00,56.2,55.7,30.11,South,188,3.0,9.0,98,0.00,,SKC,0.00,VWS V13.00,2013-01-29 15:22:00,
2013-01-29 09:27:00,56.3,55.8,30.11,SSE,167,2.0,9.0,98,0.00,,SKC,0.00,VWS V13.00,2013-01-29 15:27:00,
2013-01-29 09:32:00,56.3,55.8,30.11,SSE,159,6.0,9.0,98,0.00,,SKC,0.00,VWS V13.00,2013-01-29 15:32:00,
2013-01-29 09:37:00,56.5,55.9,30.11,SSE,164,4.0,12.0,98,0.00,,SKC,0.00,VWS V13.00,2013-01-29 15:37:00,
2013-01-29 09:42:00,56.7,56.1,30.11,SSW,200,5.0,12.0,98,0.00,,SKC,0.00,VWS V13.00,2013-01-29 15:42:00,
2013-01-29 09:47:00,57.0,56.4,30.11,South,171,7.0,12.0,98,0.00,,SKC,0.00,VWS V13.00,2013-01-29 15:47:00,
2013-01-29 09:52:00,57.2,56.6,30.10,South,173,8.0,12.0,98,0.00,,SKC,0.00,VWS V13.00,2013-01-29 15:52:00,
2013-01-29 09:57:00,57.5,56.9,30.10,South,172,5.0,12.0,98,0.00,,SKC,0.00,VWS V13.00,2013-01-29 15:57:00,
2013-01-29 10:02:00,57.6,57.0,30.10,South,188,6.0,12.0,98,0.00,,SKC,0.00,VWS V13.00,2013-01-29 16:02:00,
2013-01-29 10:07:00,57.8,57.2,30.10,SSE,151,6.0,8.0,98,0.00,,SKC,0.00,VWS V13.00,2013-01-29 16:07:00,
2013-01-29 10:12:00,57.9,57.3,30.10,SSE,159,6.0,9.0,98,0.00,,SKC,0.00,VWS V13.00,2013-01-29 16:12:00,
2013-01-29 10:17:00,58.1,57.5,30.10,SSE,153,5.0,9.0,98,0.00,,SKC,0.00,VWS V13.00,2013-01-29 16:17:00,
2013-01-29 10:22:00,58.2,57.6,30.09,South,182,1.0,9.0,98,0.00,,SKC,0.00,VWS V13.00,2013-01-29 16:22:00,
2013-01-29 10:27:00,58.3,57.7,30.09,South,183,4.0,10.0,98,0.00,,SKC,0.00,VWS V13.00,2013-01-29 16:27:00,
2013-01-29 10:32:00,58.5,57.9,30.09,WSW,243,6.0,10.0,98,0.00,,SKC,0.00,VWS V13.00,2013-01-29 16:32:00,
2013-01-29 10:37:00,58.6,58.0,30.08,South,169,6.0,11.0,98,0.00,,SKC,0.00,VWS V13.00,2013-01-29 16:37:00,
2013-01-29 10:42:00,58.6,58.0,30.08,SSW,200,6.0,11.0,98,0.00,,SKC,0.00,VWS V13.00,2013-01-29 16:42:00,
2013-01-29 10:47:00,58.6,58.0,30.08,SSW,193,6.0,11.0,98,0.00,,SKC,0.00,VWS V13.00,2013-01-29 16:47:00,
2013-01-29 10:52:00,58.7,58.1,30.07,SSW,199,5.0,11.0,98,0.00,,SKC,0.00,VWS V13.00,2013-01-29 16:52:00,
2013-01-29 10:57:00,58.7,58.1,30.07,South,173,4.0,11.0,98,0.00,,SKC,0.00,VWS V13.00,2013-01-29 16:57:00,
2013-01-29 11:02:00,58.7,58.1,30.07,South,178,4.0,11.0,98,0.00,,SKC,0.00,VWS V13.00,2013-01-29 17:02:00,
2013-01-29 11:07:00,58.6,58.0,30.07,SSW,205,9.0,10.0,98,0.00,,SKC,0.00,VWS V13.00,2013-01-29 17:07:00,
2013-01-29 11:12:00,58.5,57.9,30.07,SSE,165,7.0,12.0,98,0.00,,SKC,0.00,VWS V13.00,2013-01-29 17:12:00,
2013-01-29 11:17:00,58.5,57.9,30.06,South,183,4.0,13.0,98,0.00,,SKC,0.00,VWS V13.00,2013-01-29 17:17:00,
2013-01-29 11:22:00,58.6,58.0,30.06,South,182,5.0,13.0,98,0.00,,SKC,0.00,VWS V13.00,2013-01-29 17:22:00,
2013-01-29 11:27:00,58.7,58.1,30.06,SSW,198,5.0,13.0,98,0.00,,SKC,0.00,VWS V13.00,2013-01-29 17:27:00,
2013-01-29 11:32:00,58.7,58.1,30.05,South,190,7.0,13.0,98,0.00,,SKC,0.00,VWS V13.00,2013-01-29 17:32:00,
2013-01-29 11:37:00,58.6,58.0,30.05,SSW,209,6.0,10.0,98,0.00,,SKC,0.00,VWS V13.00,2013-01-29 17:37:00,
2013-01-29 11:42:00,58.6,58.0,30.05,South,169,6.0,10.0,98,0.00,,SKC,0.00,VWS V13.00,2013-01-29 17:42:00,
2013-01-29 11:47:00,58.8,58.2,30.04,South,186,4.0,10.0,98,0.00,,SKC,0.00,VWS V13.00,2013-01-29 17:47:00,
2013-01-29 11:52:00,58.9,58.3,30.04,SSW,194,6.0,10.0,98,0.00,,SKC,0.00,VWS V13.00,2013-01-29 17:52:00,
2013-01-29 11:57:00,59.1,58.5,30.03,SE,136,7.0,10.0,98,0.00,,SKC,0.00,VWS V13.00,2013-01-29 17:57:00,
2013-01-29 12:02:00,59.2,58.6,30.03,SSE,163,3.0,10.0,98,0.00,,SKC,0.00,VWS V13.00,2013-01-29 18:02:00,
2013-01-29 12:07:00,59.3,58.7,30.03,SSE,158,5.0,11.0,98,0.00,,SKC,0.00,VWS V13.00,2013-01-29 18:07:00,
2013-01-29 12:12:00,59.5,58.9,30.02,South,189,4.0,11.0,98,0.00,,SKC,0.00,VWS V13.00,2013-01-29 18:12:00,
2013-01-29 12:17:00,59.7,59.1,30.02,SE,134,2.0,11.0,98,0.00,,SKC,0.00,VWS V13.00,2013-01-29 18:17:00,
2013-01-29 12:22:00,60.0,59.2,30.02,South,171,5.0,11.0,97,0.00,,SKC,0.00,VWS V13.00,2013-01-29 18:22:00,
2013-01-29 12:27:00,60.2,59.3,30.02,SW,219,9.0,11.0,97,0.00,,SKC,0.00,VWS V13.00,2013-01-29 18:27:00,
2013-01-29 12:32:00,60.4,59.3,30.02,SE,132,5.0,12.0,96,0.00,,SKC,0.00,VWS V13.00,2013-01-29 18:32:00,
2013-01-29 12:37:00,60.8,59.7,30.01,SSE,167,6.0,15.0,96,0.00,,SKC,0.00,VWS V13.00,2013-01-29 18:37:00,
2013-01-29 12:42:00,61.2,60.0,30.01,South,184,6.0,15.0,96,0.00,,SKC,0.00,VWS V13.00,2013-01-29 18:42:00,
2013-01-29 12:46:00,61.5,60.1,30.00,SSE,156,4.0,15.0,95,0.00,,SKC,0.00,VWS V13.00,2013-01-29 18:46:00,
2013-01-29 12:51:00,61.7,60.0,30.00,SSW,202,11.0,18.0,94,0.00,,SKC,0.00,VWS V13.00,2013-01-29 18:51:00,
2013-01-29 12:56:00,61.9,60.2,29.99,SSW,192,7.0,18.0,94,0.00,,SKC,0.00,VWS V13.00,2013-01-29 18:56:00,
2013-01-29 13:01:00,62.2,60.2,29.99,South,173,8.0,18.0,93,0.00,,SKC,0.00,VWS V13.00,2013-01-29 19:01:00,
2013-01-29 13:06:00,62.4,60.3,29.99,South,173,5.0,14.0,93,0.00,,SKC,0.00,VWS V13.00,2013-01-29 19:06:00,
2013-01-29 13:11:00,62.7,60.7,29.98,SSE,161,3.0,14.0,93,0.00,,SKC,0.00,VWS V13.00,2013-01-29 19:11:00,
2013-01-29 13:16:00,63.0,60.6,29.98,South,181,10.0,14.0,92,0.00,,SKC,0.00,VWS V13.00,2013-01-29 19:16:00,
2013-01-29 13:21:00,63.2,60.8,29.98,South,181,7.0,14.0,92,0.00,,SKC,0.00,VWS V13.00,2013-01-29 19:21:00,
2013-01-29 13:26:00,63.5,60.8,29.98,SSE,160,8.0,14.0,91,0.00,,SKC,0.00,VWS V13.00,2013-01-29 19:26:00,
2013-01-29 13:31:00,63.7,60.7,29.98,South,179,9.0,14.0,90,0.00,,SKC,0.00,VWS V13.00,2013-01-29 19:31:00,
2013-01-29 13:36:00,63.9,60.9,29.97,South,180,6.0,13.0,90,0.00,,SKC,0.00,VWS V13.00,2013-01-29 19:36:00,
2013-01-29 13:41:00,64.2,61.2,29.97,South,169,8.0,14.0,90,0.00,,SKC,0.00,VWS V13.00,2013-01-29 19:41:00,
2013-01-29 13:46:00,64.6,61.3,29.97,SSW,196,6.0,14.0,89,0.00,,SKC,0.00,VWS V13.00,2013-01-29 19:46:00,
2013-01-29 13:51:00,64.9,61.6,29.96,SSW,198,4.0,14.0,89,0.00,,SKC,0.00,VWS V13.00,2013-01-29 19:51:00,
2013-01-29 13:56:00,65.2,61.6,29.96,SSW,202,8.0,14.0,88,0.00,,SKC,0.00,VWS V13.00,2013-01-29 19:56:00,
2013-01-29 13:57:00,65.2,61.6,29.96,SSW,200,8.0,14.0,88,0.00,,SKC,0.00,VWS V13.00,2013-01-29 19:57:00,
2013-01-29 14:02:00,65.3,61.7,29.96,South,172,7.0,14.0,88,0.00,,SKC,0.00,VWS V13.00,2013-01-29 20:02:00,
2013-01-29 14:07:00,65.4,61.4,29.96,SSE,168,5.0,13.0,87,0.00,,SKC,0.00,VWS V13.00,2013-01-29 20:07:00,
2013-01-29 14:12:00,65.4,61.4,29.96,South,172,7.0,13.0,87,0.00,,SKC,0.00,VWS V13.00,2013-01-29 20:12:00,
2013-01-29 14:17:00,65.3,61.3,29.96,South,186,6.0,13.0,87,0.00,,SKC,0.00,VWS V13.00,2013-01-29 20:17:00,
2013-01-29 14:22:00,65.3,61.3,29.96,South,188,3.0,13.0,87,0.00,,SKC,0.00,VWS V13.00,2013-01-29 20:22:00,
2013-01-29 14:27:00,65.5,61.5,29.96,South,189,8.0,13.0,87,0.00,,SKC,0.00,VWS V13.00,2013-01-29 20:27:00,
2013-01-29 14:32:00,65.7,61.7,29.95,South,182,5.0,13.0,87,0.00,,SKC,0.00,VWS V13.00,2013-01-29 20:32:00,
2013-01-29 14:37:00,65.8,61.8,29.95,SSW,205,5.0,12.0,87,0.00,,SKC,0.00,VWS V13.00,2013-01-29 20:37:00,
2013-01-29 14:42:00,65.9,61.6,29.95,SW,229,4.0,12.0,86,0.00,,SKC,0.00,VWS V13.00,2013-01-29 20:42:00,
2013-01-29 14:47:00,65.8,61.5,29.95,SSW,203,5.0,13.0,86,0.00,,SKC,0.00,VWS V13.00,2013-01-29 20:47:00,
2013-01-29 14:52:00,65.8,61.8,29.95,South,175,7.0,13.0,87,0.00,,SKC,0.00,VWS V13.00,2013-01-29 20:52:00,
2013-01-29 14:57:00,65.9,61.6,29.95,SSW,196,5.0,13.0,86,0.00,,SKC,0.00,VWS V13.00,2013-01-29 20:57:00,
2013-01-29 15:02:00,65.9,61.6,29.95,SSE,159,5.0,13.0,86,0.00,,SKC,0.00,VWS V13.00,2013-01-29 21:02:00,
2013-01-29 15:07:00,66.0,61.7,29.94,South,185,5.0,10.0,86,0.00,,SKC,0.00,VWS V13.00,2013-01-29 21:07:00,
2013-01-29 15:12:00,66.1,61.8,29.94,SSE,165,5.0,10.0,86,0.00,,SKC,0.00,VWS V13.00,2013-01-29 21:12:00,
2013-01-29 15:17:00,66.1,61.8,29.94,WSW,244,5.0,10.0,86,0.00,,SKC,0.00,VWS V13.00,2013-01-29 21:17:00,
2013-01-29 15:22:00,66.0,61.7,29.94,South,191,6.0,10.0,86,0.00,,SKC,0.00,VWS V13.00,2013-01-29 21:22:00,
2013-01-29 15:27:00,65.9,61.6,29.93,SSE,156,5.0,10.0,86,0.00,,SKC,0.00,VWS V13.00,2013-01-29 21:27:00,
2013-01-29 15:32:00,65.9,61.6,29.93,SSW,202,2.0,10.0,86,0.00,,SKC,0.00,VWS V13.00,2013-01-29 21:32:00,
2013-01-29 15:37:00,65.8,61.5,29.93,SSE,157,2.0,7.0,86,0.00,,SKC,0.00,VWS V13.00,2013-01-29 21:37:00,
2013-01-29 15:42:00,65.8,61.5,29.93,South,172,5.0,7.0,86,0.00,,SKC,0.00,VWS V13.00,2013-01-29 21:42:00,
2013-01-29 15:47:00,65.9,61.6,29.92,SSE,151,0.0,7.0,86,0.00,,SKC,0.00,VWS V13.00,2013-01-29 21:47:00,
2013-01-29 15:52:00,66.0,61.7,29.92,South,185,4.0,7.0,86,0.00,,SKC,0.00,VWS V13.00,2013-01-29 21:52:00,
2013-01-29 15:57:00,66.2,61.9,29.92,SSW,196,3.0,8.0,86,0.00,,SKC,0.00,VWS V13.00,2013-01-29 21:57:00,
2013-01-29 16:02:00,66.3,62.0,29.92,South,172,6.0,8.0,86,0.00,,SKC,0.00,VWS V13.00,2013-01-29 22:02:00,
2013-01-29 16:07:00,66.3,62.0,29.92,South,176,1.0,8.0,86,0.00,,SKC,0.00,VWS V13.00,2013-01-29 22:07:00,
2013-01-29 16:11:00,66.3,61.7,29.92,South,190,5.0,10.0,85,0.00,,SKC,0.00,VWS V13.00,2013-01-29 22:11:00,
2013-01-29 16:16:00,66.3,61.7,29.91,South,181,4.0,10.0,85,0.00,,SKC,0.00,VWS V13.00,2013-01-29 22:16:00,
2013-01-29 16:21:00,66.3,61.7,29.91,South,173,3.0,10.0,85,0.00,,SKC,0.00,VWS V13.00,2013-01-29 22:21:00,
2013-01-29 16:26:00,66.3,61.7,29.90,SSE,157,1.0,10.0,85,0.00,,SKC,0.00,VWS V13.00,2013-01-29 22:26:00,
2013-01-29 16:31:00,66.2,61.6,29.90,South,186,5.0,10.0,85,0.00,,SKC,0.00,VWS V13.00,2013-01-29 22:31:00,
2013-01-29 16:36:00,66.1,61.5,29.90,SSE,157,6.0,8.0,85,0.00,,SKC,0.00,VWS V13.00,2013-01-29 22:36:00,
2013-01-29 16:41:00,66.0,61.4,29.90,SSE,161,7.0,8.0,85,0.00,,SKC,0.00,VWS V13.00,2013-01-29 22:41:00,
2013-01-29 16:46:00,65.9,61.6,29.90,SSW,194,4.0,8.0,86,0.00,,SKC,0.00,VWS V13.00,2013-01-29 22:46:00,
2013-01-29 16:51:00,65.8,61.5,29.91,South,190,4.0,8.0,86,0.00,,SKC,0.00,VWS V13.00,2013-01-29 22:51:00,
2013-01-29 16:56:00,65.8,61.5,29.91,SW,217,4.0,8.0,86,0.00,,SKC,0.00,VWS V13.00,2013-01-29 22:56:00,
2013-01-29 17:01:00,65.7,61.4,29.91,SSW,207,1.0,8.0,86,0.00,,SKC,0.00,VWS V13.00,2013-01-29 23:01:00,
2013-01-29 17:06:00,65.6,61.6,29.91,South,186,3.0,5.0,87,0.00,,SKC,0.00,VWS V13.00,2013-01-29 23:06:00,
2013-01-29 17:11:00,65.5,61.5,29.90,SSE,164,2.0,8.0,87,0.00,,SKC,0.00,VWS V13.00,2013-01-29 23:11:00,
2013-01-29 17:16:00,65.4,61.4,29.90,South,170,4.0,8.0,87,0.00,,SKC,0.00,VWS V13.00,2013-01-29 23:16:00,
2013-01-29 17:21:00,65.4,61.4,29.91,SSE,155,2.0,8.0,87,0.00,,SKC,0.00,VWS V13.00,2013-01-29 23:21:00,
2013-01-29 17:26:00,65.4,61.1,29.90,South,169,1.0,8.0,86,0.00,,SKC,0.00,VWS V13.00,2013-01-29 23:26:00,
2013-01-29 17:31:00,65.4,61.1,29.90,SSE,151,4.0,8.0,86,0.00,,SKC,0.00,VWS V13.00,2013-01-29 23:31:00,
2013-01-29 17:36:00,65.4,61.1,29.90,SE,142,5.0,7.0,86,0.00,,SKC,0.00,VWS V13.00,2013-01-29 23:36:00,
2013-01-29 17:41:00,65.4,61.1,29.90,South,169,4.0,7.0,86,0.00,,SKC,0.00,VWS V13.00,2013-01-29 23:41:00,
2013-01-29 17:46:00,65.3,61.0,29.90,South,179,3.0,7.0,86,0.00,,SKC,0.00,VWS V13.00,2013-01-29 23:46:00,
2013-01-29 17:51:00,65.2,60.9,29.90,SSW,195,4.0,7.0,86,0.00,,SKC,0.00,VWS V13.00,2013-01-29 23:51:00,
2013-01-29 17:56:00,65.2,60.9,29.91,South,171,3.0,7.0,86,0.00,,SKC,0.00,VWS V13.00,2013-01-29 23:56:00,
2013-01-29 18:01:00,65.1,60.8,29.91,SSE,158,5.0,7.0,86,0.00,,SKC,0.00,VWS V13.00,2013-01-30 00:01:00,
2013-01-29 18:06:00,65.1,61.1,29.90,SSE,155,2.0,5.0,87,0.00,,SKC,0.00,VWS V13.00,2013-01-30 00:06:00,
2013-01-29 18:11:00,65.2,61.2,29.90,South,170,1.0,6.0,87,0.00,,SKC,0.00,VWS V13.00,2013-01-30 00:11:00,
2013-01-29 18:16:00,65.2,61.2,29.90,South,169,2.0,6.0,87,0.00,,SKC,0.00,VWS V13.00,2013-01-30 00:16:00,
2013-01-29 18:21:00,65.2,61.2,29.89,SE,127,2.0,6.0,87,0.00,,SKC,0.00,VWS V13.00,2013-01-30 00:21:00,
2013-01-29 18:27:00,65.3,61.0,29.89,SSE,151,1.0,6.0,86,0.00,,SKC,0.00,VWS V13.00,2013-01-30 00:27:00,
2013-01-29 18:32:00,65.3,61.0,29.89,SE,131,4.0,6.0,86,0.00,,SKC,0.00,VWS V13.00,2013-01-30 00:32:00,
2013-01-29 18:37:00,65.3,61.3,29.89,SSE,161,1.0,4.0,87,0.00,,SKC,0.00,VWS V13.00,2013-01-30 00:37:00,
2013-01-29 18:41:00,65.3,61.3,29.90,South,170,0.0,6.0,87,0.00,,SKC,0.00,VWS V13.00,2013-01-30 00:41:00,
2013-01-29 18:46:00,65.4,61.4,29.89,South,171,3.0,6.0,87,0.00,,SKC,0.00,VWS V13.00,2013-01-30 00:46:00,
2013-01-29 18:51:00,65.4,61.4,29.89,SSE,164,0.0,6.0,87,0.00,,SKC,0.00,VWS V13.00,2013-01-30 00:51:00,
2013-01-29 18:56:00,65.4,61.4,29.89,SSE,165,5.0,9.0,87,0.00,,SKC,0.00,VWS V13.00,2013-01-30 00:56:00,
2013-01-29 19:01:00,65.6,62.0,29.89,South,173,5.0,9.0,88,0.00,,SKC,0.00,VWS V13.00,2013-01-30 01:01:00,
2013-01-29 19:06:00,65.8,62.2,29.89,South,190,4.0,7.0,88,0.00,,SKC,0.00,VWS V13.00,2013-01-30 01:06:00,
2013-01-29 19:11:00,65.9,62.2,29.89,South,186,5.0,8.0,88,0.00,,SKC,0.00,VWS V13.00,2013-01-30 01:11:00,
2013-01-29 19:16:00,66.2,62.5,29.89,SSE,152,6.0,14.0,88,0.00,,SKC,0.00,VWS V13.00,2013-01-30 01:16:00,
2013-01-29 19:21:00,66.4,62.7,29.89,SSW,197,6.0,14.0,88,0.00,,SKC,0.00,VWS V13.00,2013-01-30 01:21:00,
2013-01-29 19:26:00,66.6,62.6,29.89,South,172,4.0,14.0,87,0.00,,SKC,0.00,VWS V13.00,2013-01-30 01:26:00,
2013-01-29 19:31:00,66.7,62.7,29.90,SSW,192,4.0,14.0,87,0.00,,SKC,0.00,VWS V13.00,2013-01-30 01:31:00,
2013-01-29 19:36:00,67.0,63.0,29.89,South,188,9.0,9.0,87,0.00,,SKC,0.00,VWS V13.00,2013-01-30 01:36:00,
2013-01-29 19:41:00,67.1,63.1,29.89,SSW,207,11.0,12.0,87,0.00,,SKC,0.00,VWS V13.00,2013-01-30 01:41:00,
2013-01-29 19:46:00,67.4,63.1,29.89,South,181,4.0,13.0,86,0.00,,SKC,0.00,VWS V13.00,2013-01-30 01:46:00,
2013-01-29 19:51:00,67.5,63.2,29.89,South,186,6.0,14.0,86,0.00,,SKC,0.00,VWS V13.00,2013-01-30 01:51:00,
2013-01-29 19:56:00,67.6,63.3,29.89,SW,217,8.0,14.0,86,0.00,,SKC,0.00,VWS V13.00,2013-01-30 01:56:00,
2013-01-29 20:01:00,67.8,63.5,29.89,South,173,7.0,14.0,86,0.00,,SKC,0.00,VWS V13.00,2013-01-30 02:01:00,
2013-01-29 20:06:00,67.9,63.2,29.89,SSW,192,11.0,13.0,85,0.00,,SKC,0.00,VWS V13.00,2013-01-30 02:06:00,
2013-01-29 20:11:00,67.9,63.2,29.89,South,184,8.0,14.0,85,0.00,,SKC,0.00,VWS V13.00,2013-01-30 02:11:00,
2013-01-29 20:16:00,67.9,63.2,29.88,South,181,9.0,14.0,85,0.00,,SKC,0.00,VWS V13.00,2013-01-30 02:16:00,
2013-01-29 20:21:00,67.9,63.2,29.87,SSW,192,6.0,14.0,85,0.00,,SKC,0.00,VWS V13.00,2013-01-30 02:21:00,
2013-01-29 20:26:00,67.9,63.2,29.87,SE,145,6.0,14.0,85,0.00,,SKC,0.00,VWS V13.00,2013-01-30 02:26:00,
2013-01-29 20:31:00,67.8,63.1,29.87,South,177,12.0,14.0,85,0.00,,SKC,0.00,VWS V13.00,2013-01-30 02:31:00,
2013-01-29 20:36:00,67.9,63.2,29.86,SSW,202,10.0,12.0,85,0.00,,SKC,0.00,VWS V13.00,2013-01-30 02:36:00,
2013-01-29 20:41:00,67.9,63.2,29.86,South,169,7.0,15.0,85,0.00,,SKC,0.00,VWS V13.00,2013-01-30 02:41:00,
2013-01-29 20:46:00,67.9,63.2,29.87,South,190,9.0,20.0,85,0.00,,SKC,0.00,VWS V13.00,2013-01-30 02:46:00,
2013-01-29 20:51:00,67.9,63.2,29.87,South,185,6.0,20.0,85,0.00,,SKC,0.00,VWS V13.00,2013-01-30 02:51:00,
2013-01-29 20:56:00,67.9,63.2,29.87,South,179,6.0,20.0,85,0.00,,SKC,0.00,VWS V13.00,2013-01-30 02:56:00,
2013-01-29 21:01:00,67.9,63.2,29.86,South,175,7.0,20.0,85,0.00,,SKC,0.00,VWS V13.00,2013-01-30 03:01:00,
2013-01-29 21:06:00,67.8,63.1,29.85,SSE,167,9.0,12.0,85,0.00,,SKC,0.00,VWS V13.00,2013-01-30 03:06:00,
2013-01-29 21:11:00,67.8,63.1,29.85,South,188,14.0,14.0,85,0.00,,SKC,0.00,VWS V13.00,2013-01-30 03:11:00,
2013-01-29 21:16:00,67.7,63.0,29.85,South,178,9.0,16.0,85,0.00,,SKC,0.00,VWS V13.00,2013-01-30 03:16:00,
2013-01-29 21:21:00,67.7,63.0,29.85,SSW,192,11.0,16.0,85,0.00,,SKC,0.00,VWS V13.00,2013-01-30 03:21:00,
2013-01-29 21:26:00,67.6,62.9,29.84,South,188,5.0,16.0,85,0.00,,SKC,0.00,VWS V13.00,2013-01-30 03:26:00,
2013-01-29 21:31:00,67.6,62.9,29.83,SSE,160,11.0,18.0,85,0.00,,SKC,0.00,VWS V13.00,2013-01-30 03:31:00,
2013-01-29 21:36:00,67.6,62.9,29.83,South,178,13.0,16.0,85,0.00,,SKC,0.00,VWS V13.00,2013-01-30 03:36:00,
2013-01-29 21:41:00,67.6,62.9,29.83,SSE,156,14.0,19.0,85,0.00,,SKC,0.00,VWS V13.00,2013-01-30 03:41:00,
2013-01-29 21:46:00,67.6,62.6,29.83,South,169,10.0,22.0,84,0.00,,SKC,0.00,VWS V13.00,2013-01-30 03:46:00,
2013-01-29 21:51:00,67.5,62.5,29.83,South,176,8.0,22.0,84,0.00,,SKC,0.00,VWS V13.00,2013-01-30 03:51:00,
2013-01-29 21:56:00,67.5,62.5,29.83,SSE,163,12.0,22.0,84,0.00,,SKC,0.00,VWS V13.00,2013-01-30 03:56:00,
2013-01-29 22:01:00,67.5,62.5,29.83,SW,221,9.0,22.0,84,0.00,,SKC,0.00,VWS V13.00,2013-01-30 04:01:00,
2013-01-29 22:06:00,67.4,62.7,29.82,South,178,12.0,21.0,85,0.00,,SKC,0.00,VWS V13.00,2013-01-30 04:06:00,
2013-01-29 22:11:00,67.5,62.8,29.82,SSW,193,8.0,21.0,85,0.00,,SKC,0.00,VWS V13.00,2013-01-30 04:11:00,
2013-01-29 22:16:00,67.5,62.5,29.81,SSW,198,8.0,21.0,84,0.00,,SKC,0.00,VWS V13.00,2013-01-30 04:16:00,
2013-01-29 22:21:00,67.5,62.8,29.82,SE,140,7.0,21.0,85,0.00,,SKC,0.00,VWS V13.00,2013-01-30 04:21:00,
2013-01-29 22:26:00,67.5,62.8,29.82,South,171,13.0,21.0,85,0.00,,SKC,0.00,VWS V13.00,2013-01-30 04:26:00,
2013-01-29 22:31:00,67.5,62.8,29.81,SSW,199,10.0,21.0,85,0.00,,SKC,0.00,VWS V13.00,2013-01-30 04:31:00,
2013-01-29 22:36:00,67.6,62.9,29.81,SSW,212,8.0,15.0,85,0.00,,SKC,0.00,VWS V13.00,2013-01-30 04:36:00,
2013-01-29 22:41:00,67.6,62.9,29.81,SSW,207,14.0,20.0,85,0.00,,SKC,0.00,VWS V13.00,2013-01-30 04:41:00,
2013-01-29 22:46:00,67.6,62.9,29.81,SSE,161,8.0,20.0,85,0.00,,SKC,0.00,VWS V13.00,2013-01-30 04:46:00,
2013-01-29 22:51:00,67.7,63.0,29.81,SSE,157,10.0,20.0,85,0.00,,SKC,0.00,VWS V13.00,2013-01-30 04:51:00,
2013-01-29 22:56:00,67.7,63.0,29.80,South,186,9.0,20.0,85,0.00,,SKC,0.00,VWS V13.00,2013-01-30 04:56:00,
2013-01-29 23:00:00,67.7,63.0,29.80,South,169,9.0,20.0,85,0.00,,SKC,0.00,VWS V13.00,2013-01-30 05:00:00,
2013-01-29 23:02:00,67.7,63.0,29.80,South,169,13.0,20.0,85,0.00,,SKC,0.00,VWS V13.00,2013-01-30 05:02:00,
2013-01-29 23:03:00,67.7,63.0,29.80,SSW,205,10.0,14.0,85,0.00,,SKC,0.00,VWS V13.00,2013-01-30 05:03:00,
2013-01-29 23:08:00,67.7,63.0,29.80,SSW,196,15.0,15.0,85,0.00,,SKC,0.00,VWS V13.00,2013-01-30 05:08:00,
2013-01-29 23:13:00,67.8,63.1,29.80,SSW,205,8.0,22.0,85,0.00,,SKC,0.00,VWS V13.00,2013-01-30 05:13:00,
2013-01-29 23:18:00,67.8,63.1,29.80,South,187,10.0,22.0,85,0.00,,SKC,0.00,VWS V13.00,2013-01-30 05:18:00,
2013-01-29 23:23:00,67.8,63.1,29.80,SW,215,7.0,22.0,85,0.00,,SKC,0.00,VWS V13.00,2013-01-30 05:23:00,
2013-01-29 23:28:00,67.8,63.1,29.80,South,190,12.0,24.0,85,0.00,,SKC,0.00,VWS V13.00,2013-01-30 05:28:00,
2013-01-29 23:33:00,67.8,63.1,29.80,South,177,6.0,11.0,85,0.00,,SKC,0.00,VWS V13.00,2013-01-30 05:33:00,
2013-01-29 23:38:00,67.7,63.4,29.79,SSW,205,13.0,18.0,86,0.00,,SKC,0.00,VWS V13.00,2013-01-30 05:38:00,
2013-01-29 23:43:00,67.4,63.4,29.79,SSW,200,10.0,18.0,87,0.00,,SKC,0.00,VWS V13.00,2013-01-30 05:43:00,
2013-01-29 23:48:00,67.0,63.3,29.79,SSW,208,12.0,18.0,88,0.00,,SKC,0.00,VWS V13.00,2013-01-30 05:48:00,
2013-01-29 23:53:00,66.7,63.4,29.79,SSW,196,9.0,18.0,89,0.00,,SKC,0.00,VWS V13.00,2013-01-30 05:53:00,
2013-01-29 23:58:00,66.6,63.3,29.77,SSW,198,11.0,18.0,89,0.00,,SKC,0.00,VWS V13.00,2013-01-30 05:58:00,